Time,TemperatureF,DewpointF,PressureIn,WindDirection,WindDirectionDegrees,WindSpeedMPH,WindSpeedGustMPH,Humidity,HourlyPrecipIn,Conditions,Clouds,dailyrainin,SolarRadiationWatts/m^2,SoftwareType,DateUTC
2013-09-22 00:02:00,41.0,37.0,-100.00,SSW,199,3.0,7.0,85,0.00,,,0.01,0.000000,,2013-09-22 07:02:00,
2013-09-22 00:11:00,41.0,37.0,-100.00,SSW,199,3.0,7.0,85,0.00,,,0.01,0.000000,,2013-09-22 07:11:00,
2013-09-22 00:42:00,42.0,37.0,-100.00,South,177,3.0,13.0,82,0.00,,,0.01,0.000000,,2013-09-22 07:42:00,
2013-09-22 00:52:00,42.0,37.0,-100.00,South,177,3.0,13.0,82,0.00,,,0.01,0.000000,,2013-09-22 07:52:00,
2013-09-22 01:03:00,42.0,37.0,-100.00,South,177,3.0,13.0,82,0.00,,,0.01,0.000000,,2013-09-22 08:03:00,
2013-09-22 01:11:00,42.0,37.0,-100.00,South,177,3.0,13.0,82,0.00,,,0.01,0.000000,,2013-09-22 08:11:00,
2013-09-22 01:42:00,40.0,37.0,-100.00,South,186,6.0,15.0,88,0.00,,,0.01,0.000000,,2013-09-22 08:42:00,
2013-09-22 01:52:00,40.0,37.0,-100.00,South,186,6.0,15.0,88,0.00,,,0.01,0.000000,,2013-09-22 08:52:00,
2013-09-22 02:01:00,40.0,37.0,-100.00,South,186,6.0,15.0,88,0.00,,,0.01,0.000000,,2013-09-22 09:01:00,
2013-09-22 02:11:00,40.0,37.0,-100.00,South,186,6.0,15.0,88,0.00,,,0.01,0.000000,,2013-09-22 09:11:00,
2013-09-22 02:43:00,41.0,37.0,-100.00,South,187,6.0,14.0,85,0.00,,,0.01,0.000000,,2013-09-22 09:43:00,
2013-09-22 02:53:00,41.0,37.0,-100.00,South,187,6.0,14.0,85,0.00,,,0.01,0.000000,,2013-09-22 09:53:00,
2013-09-22 03:03:00,41.0,37.0,-100.00,South,187,6.0,14.0,85,0.00,,,0.01,0.000000,,2013-09-22 10:03:00,
2013-09-22 03:12:00,41.0,37.0,-100.00,South,187,6.0,14.0,85,0.00,,,0.01,0.000000,,2013-09-22 10:12:00,
2013-09-22 03:44:00,41.0,38.0,-100.00,South,191,7.0,12.0,89,0.00,,,0.01,0.000000,,2013-09-22 10:44:00,
2013-09-22 03:53:00,41.0,38.0,-100.00,South,191,7.0,12.0,89,0.00,,,0.01,0.000000,,2013-09-22 10:53:00,
2013-09-22 04:12:00,41.0,38.0,-100.00,South,191,7.0,12.0,89,0.00,,,0.01,0.000000,,2013-09-22 11:12:00,
2013-09-22 04:42:00,40.0,38.0,-100.00,South,182,5.0,11.0,92,0.00,,,0.01,0.000000,,2013-09-22 11:42:00,
2013-09-22 04:52:00,40.0,38.0,-100.00,South,182,5.0,11.0,92,0.00,,,0.01,0.000000,,2013-09-22 11:52:00,
2013-09-22 05:02:00,40.0,38.0,-100.00,South,182,5.0,11.0,92,0.00,,,0.01,0.000000,,2013-09-22 12:02:00,
2013-09-22 05:12:00,40.0,38.0,-100.00,South,182,5.0,11.0,92,0.00,,,0.01,0.000000,,2013-09-22 12:12:00,
2013-09-22 05:42:00,41.0,38.0,-100.00,SSW,203,6.0,12.0,88,0.00,,,0.01,0.000000,,2013-09-22 12:42:00,
2013-09-22 05:52:00,41.0,38.0,-100.00,SSW,203,6.0,12.0,88,0.00,,,0.01,0.000000,,2013-09-22 12:52:00,
2013-09-22 06:02:00,41.0,38.0,-100.00,SSW,203,6.0,12.0,88,0.00,,,0.01,0.000000,,2013-09-22 13:02:00,
2013-09-22 06:12:00,41.0,38.0,-100.00,SSW,203,6.0,12.0,88,0.00,,,0.01,0.000000,,2013-09-22 13:12:00,
2013-09-22 06:42:00,41.0,38.0,-100.00,SSW,197,4.0,10.0,88,0.00,,,0.01,0.000000,,2013-09-22 13:42:00,
2013-09-22 06:52:00,41.0,38.0,-100.00,SSW,197,4.0,10.0,88,0.00,,,0.01,0.000000,,2013-09-22 13:52:00,
2013-09-22 07:02:00,41.0,38.0,-100.00,SSW,197,4.0,10.0,88,0.00,,,0.01,0.000000,,2013-09-22 14:02:00,
2013-09-22 07:11:00,41.0,38.0,-100.00,SSW,197,4.0,10.0,88,0.00,,,0.01,0.000000,,2013-09-22 14:11:00,
2013-09-22 07:42:00,45.0,38.0,-100.00,SSW,211,6.0,12.0,75,0.00,,,0.01,4.000000,,2013-09-22 14:42:00,
2013-09-22 07:52:00,45.0,38.0,-100.00,SSW,211,6.0,12.0,75,0.00,,,0.01,4.000000,,2013-09-22 14:52:00,
2013-09-22 08:02:00,45.0,38.0,-100.00,SSW,211,6.0,12.0,75,0.00,,,0.01,4.000000,,2013-09-22 15:02:00,
2013-09-22 08:12:00,45.0,38.0,-100.00,SSW,211,6.0,12.0,75,0.00,,,0.01,4.000000,,2013-09-22 15:12:00,
2013-09-22 08:44:00,45.0,39.0,-100.00,South,186,6.0,12.0,78,0.00,,,0.01,21.000000,,2013-09-22 15:44:00,
2013-09-22 08:55:00,45.0,39.0,-100.00,South,186,6.0,12.0,78,0.00,,,0.01,21.000000,,2013-09-22 15:55:00,
2013-09-22 09:04:00,45.0,39.0,-100.00,South,186,6.0,12.0,78,0.00,,,0.01,21.000000,,2013-09-22 16:04:00,
2013-09-22 09:13:00,45.0,39.0,-100.00,South,186,6.0,12.0,78,0.00,,,0.01,21.000000,,2013-09-22 16:13:00,
2013-09-22 09:43:00,48.0,39.0,-100.00,SSE,149,5.0,13.0,71,0.00,,,0.01,110.000000,,2013-09-22 16:43:00,
2013-09-22 09:54:00,48.0,39.0,-100.00,SSE,149,5.0,13.0,71,0.00,,,0.01,110.000000,,2013-09-22 16:54:00,
2013-09-22 10:03:00,48.0,39.0,-100.00,SSE,149,5.0,13.0,71,0.00,,,0.01,110.000000,,2013-09-22 17:03:00,
2013-09-22 10:12:00,48.0,39.0,-100.00,SSE,149,5.0,13.0,71,0.00,,,0.01,110.000000,,2013-09-22 17:12:00,
2013-09-22 10:43:00,50.0,37.0,-100.00,WSW,238,9.0,16.0,60,0.00,,,0.00,179.000000,,2013-09-22 17:43:00,
2013-09-22 10:53:00,50.0,37.0,-100.00,WSW,238,9.0,16.0,60,0.00,,,0.00,179.000000,,2013-09-22 17:53:00,
2013-09-22 11:02:00,50.0,37.0,-100.00,WSW,238,9.0,16.0,60,0.00,,,0.00,179.000000,,2013-09-22 18:02:00,
2013-09-22 11:12:00,50.0,37.0,-100.00,WSW,238,9.0,16.0,60,0.00,,,0.00,179.000000,,2013-09-22 18:12:00,
2013-09-22 11:42:00,53.0,36.0,-100.00,SW,225,10.0,20.0,53,0.00,,,0.00,266.000000,,2013-09-22 18:42:00,
2013-09-22 11:52:00,53.0,36.0,-100.00,SW,225,10.0,20.0,53,0.00,,,0.00,266.000000,,2013-09-22 18:52:00,
2013-09-22 12:02:00,53.0,36.0,-100.00,SW,225,10.0,20.0,53,0.00,,,0.00,266.000000,,2013-09-22 19:02:00,
2013-09-22 12:11:00,53.0,36.0,-100.00,SW,225,10.0,20.0,53,0.00,,,0.00,266.000000,,2013-09-22 19:11:00,
2013-09-22 12:42:00,54.0,37.0,-100.00,SW,227,11.0,25.0,53,0.00,,,0.00,486.000000,,2013-09-22 19:42:00,
2013-09-22 12:52:00,54.0,37.0,-100.00,SW,227,11.0,25.0,53,0.00,,,0.00,486.000000,,2013-09-22 19:52:00,
2013-09-22 13:03:00,54.0,37.0,-100.00,SW,227,11.0,25.0,53,0.00,,,0.00,486.000000,,2013-09-22 20:03:00,
2013-09-22 13:12:00,54.0,37.0,-100.00,SW,227,11.0,25.0,53,0.00,,,0.00,486.000000,,2013-09-22 20:12:00,
2013-09-22 13:42:00,53.0,38.0,-100.00,South,174,8.0,21.0,56,0.00,,,0.00,450.000000,,2013-09-22 20:42:00,
2013-09-22 13:52:00,53.0,38.0,-100.00,South,174,8.0,21.0,56,0.00,,,0.00,450.000000,,2013-09-22 20:52:00,
2013-09-22 14:02:00,53.0,38.0,-100.00,South,174,8.0,21.0,56,0.00,,,0.00,450.000000,,2013-09-22 21:02:00,
2013-09-22 14:11:00,53.0,38.0,-100.00,South,174,8.0,21.0,56,0.00,,,0.00,450.000000,,2013-09-22 21:11:00,
2013-09-22 14:14:00,55.0,40.0,-100.00,SSW,194,8.0,19.0,56,0.00,,,0.00,311.000000,,2013-09-22 21:14:00,
2013-09-22 14:45:00,55.0,40.0,-100.00,SSW,194,8.0,19.0,56,0.00,,,0.00,311.000000,,2013-09-22 21:45:00,
2013-09-22 14:54:00,55.0,40.0,-100.00,SSW,194,8.0,19.0,56,0.00,,,0.00,311.000000,,2013-09-22 21:54:00,
2013-09-22 15:04:00,55.0,40.0,-100.00,SSW,194,8.0,19.0,56,0.00,,,0.00,311.000000,,2013-09-22 22:04:00,
2013-09-22 15:43:00,60.0,43.0,-100.00,South,169,6.0,20.0,54,0.00,,,0.00,456.000000,,2013-09-22 22:43:00,
2013-09-22 15:53:00,60.0,43.0,-100.00,South,169,6.0,20.0,54,0.00,,,0.00,456.000000,,2013-09-22 22:53:00,
2013-09-22 16:03:00,60.0,43.0,-100.00,South,169,6.0,20.0,54,0.00,,,0.00,456.000000,,2013-09-22 23:03:00,
2013-09-22 16:12:00,60.0,43.0,-100.00,South,169,6.0,20.0,54,0.00,,,0.00,456.000000,,2013-09-22 23:12:00,
2013-09-22 16:43:00,57.0,45.0,-100.00,SW,226,8.0,20.0,65,0.00,,,0.00,588.000000,,2013-09-22 23:43:00,
2013-09-22 16:52:00,57.0,45.0,-100.00,SW,226,8.0,20.0,65,0.00,,,0.00,588.000000,,2013-09-22 23:52:00,
2013-09-22 17:01:00,57.0,45.0,-100.00,SW,226,8.0,20.0,65,0.00,,,0.00,588.000000,,2013-09-23 00:01:00,
2013-09-22 17:12:00,57.0,45.0,-100.00,SW,226,8.0,20.0,65,0.00,,,0.00,588.000000,,2013-09-23 00:12:00,
2013-09-22 17:42:00,55.0,49.0,-100.00,SE,137,6.0,18.0,81,0.00,,,0.00,400.000000,,2013-09-23 00:42:00,
2013-09-22 17:53:00,55.0,49.0,-100.00,SE,137,6.0,18.0,81,0.00,,,0.00,400.000000,,2013-09-23 00:53:00,
2013-09-22 18:01:00,55.0,49.0,-100.00,SE,137,6.0,18.0,81,0.00,,,0.00,400.000000,,2013-09-23 01:01:00,
2013-09-22 18:12:00,55.0,49.0,-100.00,SE,137,6.0,18.0,81,0.00,,,0.00,400.000000,,2013-09-23 01:12:00,
2013-09-22 18:43:00,50.0,47.0,-100.00,SE,146,7.0,15.0,88,0.00,,,0.00,179.000000,,2013-09-23 01:43:00,
2013-09-22 18:52:00,50.0,47.0,-100.00,SE,146,7.0,15.0,88,0.00,,,0.00,179.000000,,2013-09-23 01:52:00,
2013-09-22 19:02:00,50.0,47.0,-100.00,SE,146,7.0,15.0,88,0.00,,,0.00,179.000000,,2013-09-23 02:02:00,
2013-09-22 19:11:00,50.0,47.0,-100.00,SE,146,7.0,15.0,88,0.00,,,0.00,179.000000,,2013-09-23 02:11:00,
2013-09-22 19:42:00,48.0,45.0,-100.00,SE,139,4.0,15.0,91,0.01,,,0.01,20.000000,,2013-09-23 02:42:00,
2013-09-22 19:52:00,48.0,45.0,-100.00,SE,139,4.0,15.0,91,0.01,,,0.01,20.000000,,2013-09-23 02:52:00,
2013-09-22 20:02:00,48.0,45.0,-100.00,SE,139,4.0,15.0,91,0.01,,,0.01,20.000000,,2013-09-23 03:02:00,
2013-09-22 20:12:00,48.0,45.0,-100.00,SE,139,4.0,15.0,91,0.01,,,0.01,20.000000,,2013-09-23 03:12:00,
2013-09-22 20:14:00,47.0,44.0,-100.00,SSE,162,4.0,11.0,90,0.00,,,0.01,0.000000,,2013-09-23 03:14:00,
2013-09-22 20:44:00,47.0,44.0,-100.00,SSE,162,4.0,11.0,90,0.00,,,0.01,0.000000,,2013-09-23 03:44:00,
2013-09-22 20:54:00,47.0,44.0,-100.00,SSE,162,4.0,11.0,90,0.00,,,0.01,0.000000,,2013-09-23 03:54:00,
2013-09-22 21:05:00,47.0,44.0,-100.00,SSE,162,4.0,11.0,90,0.00,,,0.01,0.000000,,2013-09-23 04:05:00,
2013-09-22 21:43:00,48.0,42.0,-100.00,SSW,197,6.0,13.0,81,0.00,,,0.01,0.000000,,2013-09-23 04:43:00,
2013-09-22 21:54:00,48.0,42.0,-100.00,SSW,197,6.0,13.0,81,0.00,,,0.01,0.000000,,2013-09-23 04:54:00,
2013-09-22 22:03:00,48.0,42.0,-100.00,SSW,197,6.0,13.0,81,0.00,,,0.01,0.000000,,2013-09-23 05:03:00,
2013-09-22 22:12:00,48.0,42.0,-100.00,SSW,197,6.0,13.0,81,0.00,,,0.01,0.000000,,2013-09-23 05:12:00,
2013-09-22 22:43:00,49.0,41.0,-100.00,South,176,6.0,15.0,75,0.00,,,0.01,0.000000,,2013-09-23 05:43:00,
2013-09-22 22:53:00,49.0,41.0,-100.00,South,176,6.0,15.0,75,0.00,,,0.01,0.000000,,2013-09-23 05:53:00,
2013-09-22 23:02:00,49.0,41.0,-100.00,South,176,6.0,15.0,75,0.00,,,0.01,0.000000,,2013-09-23 06:02:00,
2013-09-22 23:12:00,49.0,41.0,-100.00,South,176,6.0,15.0,75,0.00,,,0.01,0.000000,,2013-09-23 06:12:00,
2013-09-22 23:42:00,49.0,38.0,-100.00,SW,235,10.0,20.0,65,0.00,,,0.01,0.000000,,2013-09-23 06:42:00,
2013-09-22 23:52:00,49.0,38.0,-100.00,SW,235,10.0,20.0,65,0.00,,,0.01,0.000000,,2013-09-23 06:52:00,